Change the Weather History Date:

Tuesday, March 2, 2004

  Actual Average Record
Temperature  
Mean Temperature 86 °F -  
Max Temperature 98 °F 93 °F - ()
Min Temperature 75 °F 76 °F - ()
Cooling Degree Days 22    
Growing Degree Days 36 (Base 50)    
Moisture  
Dew Point 70 °F    
Average Humidity 65    
Maximum Humidity 94    
Minimum Humidity 25    
Precipitation  
Precipitation 0.00 in 0.04 in - ()
Sea Level Pressure  
Sea Level Pressure 29.71 in    
Wind  
Wind Speed 5 mph ()    
Max Wind Speed 12 mph    
Max Gust Speed -    
Visibility 5.1 miles    
Events      
T = Trace of Precipitation, MM = Missing Value Source: Averaged Metar Reports

Daily Weather History Graph

Daily Weather History Graph

Search for Another Location

Airport or City:

Trip Planner

Search our weather history database for the weather conditions in past years. The results will help you decide how hot, cold, wet, or windy it might be!

Date:

Astronomy

Mar. 02, 2004 Rise Set
Actual Time 6:33 AM ICT 6:26 PM ICT
Civil Twilight 6:12 AM ICT 6:47 PM ICT
Nautical Twilight 5:47 AM ICT 7:12 PM ICT
Astronomical Twilight 5:22 AM ICT 7:37 PM ICT
Moon 2:22 PM ICT (3/2) 2:55 AM ICT (3/2)
Length of Visible Light 12h 35m
Length of Day
11h 52m
Waxing Gibbous, 78% of the Moon is Illuminated
Mar 2
Waxing Gibbous
Mar 7
Full
Mar 14
Last Quarter
Mar 21
New
Mar 29
First Quarter

Hourly Weather History & Observations

Time (ICT) Temp. Heat Index Dew Point Humidity Pressure Visibility Wind Dir Wind Speed Gust Speed Precip Events Conditions
12:00 AM 82.4 °F 88.2 °F 73.4 °F 74% 29.77 in 6.2 mi SSW 6.9 mph - N/A   Partly Cloudy
12:30 AM 84.2 °F 90.9 °F 73.4 °F 70% 29.74 in 6.2 mi SSW 5.8 mph - N/A   Partly Cloudy
1:00 AM 82.4 °F 88.2 °F 73.4 °F 74% 29.74 in 6.2 mi SSW 4.6 mph - N/A   Partly Cloudy
1:30 AM 82.4 °F 89.5 °F 75.2 °F 79% 29.74 in 6.2 mi SSW 4.6 mph - N/A   Partly Cloudy
2:00 AM 82.4 °F 89.5 °F 75.2 °F 79% 29.71 in 6.2 mi SSW 4.6 mph - N/A   Partly Cloudy
2:30 AM 82.4 °F 89.5 °F 75.2 °F 79% 29.71 in 6.2 mi South 2.3 mph - N/A   Partly Cloudy
3:00 AM 82.4 °F 89.5 °F 75.2 °F 79% 29.71 in 6.2 mi South 2.3 mph - N/A   Scattered Clouds
3:30 AM 80.6 °F 87.1 °F 77.0 °F 89% 29.71 in 6.2 mi SSE 3.5 mph - N/A   Scattered Clouds
4:00 AM 78.8 °F - 77.0 °F 94% 29.71 in 6.2 mi SE 3.5 mph - N/A   Scattered Clouds
4:30 AM 78.8 °F - 75.2 °F 89% 29.71 in 6.2 mi ESE 4.6 mph - N/A   Scattered Clouds
5:00 AM 77.0 °F - 75.2 °F 94% 29.71 in 5.0 mi SE 4.6 mph - N/A   Scattered Clouds
5:30 AM 77.0 °F - 75.2 °F 94% 29.71 in 4.3 mi SE 4.6 mph - N/A   Scattered Clouds
6:30 AM 77.0 °F - 75.2 °F 94% 29.74 in 1.9 mi ESE 3.5 mph - N/A   Scattered Clouds
7:00 AM 77.0 °F - 75.2 °F 94% 29.74 in 1.9 mi ESE 3.5 mph - N/A   Scattered Clouds
7:30 AM 77.0 °F - 75.2 °F 94% 29.77 in 2.5 mi ESE 5.8 mph - N/A   Clear
8:00 AM 77.0 °F - 75.2 °F 94% 29.77 in 2.5 mi ESE 5.8 mph - N/A   Clear
8:30 AM 80.6 °F 86.2 °F 75.2 °F 84% 29.77 in 2.5 mi SE 4.6 mph - N/A   Clear
9:00 AM 82.4 °F 89.5 °F 75.2 °F 79% 29.77 in 3.1 mi SE 4.6 mph - N/A   Clear
10:00 AM 87.8 °F 95.6 °F 73.4 °F 62% 29.80 in 5.0 mi West 3.5 mph - N/A   Clear
10:30 AM 91.4 °F 90.7 °F 59.0 °F 34% 29.80 in 5.0 mi WNW 5.8 mph - N/A   Clear
11:00 AM 75.2 °F - 59.0 °F 57% 29.77 in - West 9.2 mph - N/A   Clear
11:30 AM 93.2 °F 92.6 °F 59.0 °F 32% 29.77 in - WNW 5.8 mph - N/A   Clear
12:00 PM 95.0 °F 94.4 °F 59.0 °F 30% 29.74 in - WNW 8.1 mph - N/A   Clear
12:30 PM 95.0 °F 93.7 °F 57.2 °F 28% 29.74 in - West 9.2 mph - N/A   Clear
1:00 PM 95.0 °F 93.7 °F 57.2 °F 28% 29.71 in - West 6.9 mph - N/A   Clear
2:30 PM 96.8 °F 95.8 °F 57.2 °F 27% 29.65 in - NW 4.6 mph - N/A   Clear
3:00 PM 96.8 °F 95.1 °F 55.4 °F 25% 29.65 in - West 3.5 mph - N/A   Clear
3:30 PM 96.8 °F 95.1 °F 55.4 °F 25% 29.65 in - NW 6.9 mph - N/A   Clear
4:00 PM 96.8 °F 95.1 °F 55.4 °F 25% 29.62 in 5.6 mi North 3.5 mph - N/A   Partly Cloudy
4:30 PM 98.6 °F 97.6 °F 57.2 °F 25% 29.62 in 5.6 mi West 2.3 mph - N/A   Partly Cloudy
5:00 PM 95.0 °F 98.5 °F 66.2 °F 39% 29.62 in 5.6 mi SSE 11.5 mph - N/A   Partly Cloudy
5:30 PM 95.0 °F 99.5 °F 68.0 °F 41% 29.65 in 5.6 mi SSE 8.1 mph - N/A   Partly Cloudy
6:00 PM 93.2 °F 98.8 °F 69.8 °F 46% 29.65 in 5.6 mi SSE 6.9 mph - N/A   Partly Cloudy
6:30 PM 91.4 °F 96.8 °F 69.8 °F 49% 29.65 in 5.6 mi SSE 8.1 mph - N/A   Partly Cloudy
7:00 PM 89.6 °F 94.7 °F 69.8 °F 52% 29.65 in 5.6 mi SSE 6.9 mph - N/A   Partly Cloudy
7:30 PM 87.8 °F 95.6 °F 73.4 °F 62% 29.68 in 5.6 mi South 9.2 mph - N/A   Partly Cloudy
8:00 PM 86.0 °F 93.4 °F 73.4 °F 66% 29.68 in 1.1 mi North - - N/A   Partly Cloudy
8:30 PM 86.0 °F 95.1 °F 75.2 °F 70% 29.68 in 5.6 mi South 5.8 mph - N/A   Partly Cloudy
9:00 PM 84.2 °F 92.3 °F 75.2 °F 74% 29.71 in 6.2 mi South 6.9 mph - N/A   Partly Cloudy
9:30 PM 84.2 °F 94.1 °F 77.0 °F 79% 29.71 in 6.2 mi South 6.9 mph - N/A   Partly Cloudy
10:00 PM 84.2 °F 96.1 °F 78.8 °F 84% 29.71 in 6.2 mi SSW 5.8 mph - N/A   Partly Cloudy
10:30 PM 82.4 °F 90.9 °F 77.0 °F 84% 29.71 in 6.2 mi SSW 5.8 mph - N/A   Partly Cloudy
11:00 PM 82.4 °F 90.9 °F 77.0 °F 84% 29.71 in 6.2 mi SSW 6.9 mph - N/A   Partly Cloudy
11:30 PM 82.4 °F 90.9 °F 77.0 °F 84% 29.71 in 6.2 mi SSW 6.9 mph - N/A   Partly Cloudy